Flag for Poland Weather past 2 weeks in Elbląg, Poland

Now
36 °F

Passing clouds.


Feels Like: 30 °F
Forecast: 29 / 36 °F
Wind: 7 mph from South

Location: Hel

Current Time: Jan 29, 2015 at 8:10:40 PM

Latest Report: Jan 29, 2015 at 7:00 PM


Visibility: 13 mi

Pressure: 29.12 "Hg

Humidity: 76%

Dew point: 29 °F

Location of ElblągLocation

Historic Weather in Elbląg — Graph

°F

Elbląg temperature yesterday

Maximum temperature yesterday: 38 °F (at 1:00 PM)
Minimum temperature yesterday: 35 °F (at 7:00 AM)
Average temperature yesterday: 36 °F

Past Weeks' High & Low Weather Summary

 TemperatureHumidityPressure
High45 °F (Jan 16, 1:00 PM)98% (Jan 22, 8:00 AM)30.25 "Hg (Jan 22, 8:00 AM)
Low30 °F (Jan 22, 7:00 AM)62% (Jan 26, 2:00 PM)29.12 "Hg (Jan 29, 5:00 AM)
Average35 °F86%29.94 "Hg
* Reported Jan 14 6:00 PM — Jan 29 6:00 PM, Elbląg, Weather by CustomWeather, © 2014

Note: Actual official high and low records may vary slightly from our data, if they occured in-between our weather recording intervals... More about our weather records

Advertising

Elbląg weather history for previous 24 hours

 ConditionsComfort  
Time TempWeatherWind HumidityBarometerVisibility
6:00 PM
Jan 29
37 °FPassing clouds.6 mph77%29.15 "Hg12 mi
5:00 PM37 °FPassing clouds.6 mph75%29.15 "Hg12 mi
4:00 PM37 °FScattered clouds.5 mph73%29.15 "Hg12 mi
3:00 PM38 °FPartly sunny.5 mph71%29.18 "Hg12 mi
2:00 PM38 °FOvercast.6 mph70%29.18 "Hg12 mi
1:00 PM38 °FOvercast.6 mph72%29.18 "Hg12 mi
12:00 PM38 °FPartly sunny.7 mph73%29.18 "Hg12 mi
11:00 AM38 °FOvercast.7 mph77%29.18 "Hg12 mi
10:00 AM38 °FPartly sunny.6 mph78%29.18 "Hg12 mi
9:00 AM37 °FPartly sunny.6 mph82%29.18 "Hg12 mi
8:00 AM36 °FOvercast.6 mph84%29.15 "Hg12 mi
7:00 AM36 °FOvercast.6 mph87%29.15 "Hg12 mi
6:00 AM36 °FOvercast.6 mph93%29.15 "Hg7 mi
5:00 AM35 °FLight rain. Low clouds.7 mph93%29.12 "Hg4 mi
4:00 AM35 °FOvercast.8 mph91%29.15 "Hg7 mi
3:00 AM36 °FOvercast.8 mph85%29.15 "Hg7 mi
2:00 AM37 °FOvercast.7 mph81%29.18 "Hg9 mi
1:00 AM36 °FOvercast.8 mph81%29.21 "Hg9 mi
12:00 AM36 °FOvercast.7 mph83%29.26 "Hg7 mi
11:00 PM
Jan 28
36 °FOvercast.7 mph86%29.29 "Hg6 mi
10:00 PM36 °FFog.7 mph88%29.35 "Hg5 mi
9:00 PM36 °FFog.6 mph88%29.41 "Hg5 mi
8:00 PM36 °FOvercast.8 mph87%29.47 "Hg6 mi
Weather by CustomWeather, © 2014

See weather overviewHow to use our weather pages